Port Angeles, WA
on Saturday, February 9, 2013

Saturday
Previous Day Next Day
Daily Summary
 ActualAverageRecord
Temperature
Mean Temperature °F °F  
Max Temperature 45°F 47°F 62°F (1963)
Min Temperature 41°F 35°F 24°F (1985)
Degree Days
Heating Degree Days 22    
Moisture
Dew Point 38°F   
Average Humidity 84    
Maximum Humidity 93    
Minimum Humidity 70    
Precipitation
Precipitation 0.00 in in in ()
Wind
Wind Speed 4 mph   
Max Wind Speed 9 mph   
Max Gust Speed mph   
Visibility 10 miles   
Events Rain   
Averages and records for this station are not official NWS values.
Key: T is trace of precipitation, MM is missing value
Source: NWS Daily Summary
Seasonal Weather Averages
Time(PST)TemperatureDew PointHumidity Pressure Visibility Wind DirectionWind SpeedGust SpeedPrecipitationEvents Conditions
12:53 AM 41.0°F 34.0°F 76% 30.27 in 10.0 miles West 6.9 mph - N/A   Overcast
1:53 AM 41.0°F 34.0°F 76% 30.27 in 10.0 miles West 4.6 mph - N/A   Overcast
2:49 AM 42.8°F 33.8°F 70% 30.26 in 10.0 miles West 9.2 mph - N/A   Overcast
2:53 AM 42.1°F 34.0°F 73% 30.27 in 10.0 miles West 8.1 mph - N/A   Overcast
3:24 AM 42.1°F 33.1°F 70% 30.26 in 10.0 miles West 6.9 mph - N/A   Overcast
3:35 AM 41.0°F 34.0°F 76% 30.26 in 10.0 miles West 6.9 mph - N/A   Overcast
3:43 AM 42.1°F 34.0°F 73% 30.26 in 10.0 miles WSW 8.1 mph - N/A   Overcast
3:53 AM 42.1°F 34.0°F 73% 30.27 in 10.0 miles WSW 6.9 mph - N/A   Overcast
4:43 AM 41.0°F 35.1°F 79% 30.26 in 10.0 miles WNW 3.5 mph - N/A   Overcast
4:53 AM 42.1°F 35.1°F 76% 30.27 in 10.0 miles West 6.9 mph - N/A   Overcast
5:53 AM 41.0°F 35.1°F 79% 30.27 in 10.0 miles Calm Calm - N/A   Overcast
6:01 AM 41.0°F 36.0°F 82% 30.26 in 10.0 miles Calm Calm - N/A   Overcast
6:42 AM 41.0°F 35.1°F 79% 30.26 in 10.0 miles WSW 3.5 mph - N/A   Overcast
6:53 AM 41.0°F 35.1°F 79% 30.26 in 9.0 miles SW 3.5 mph - N/A   Overcast
7:44 AM 41.0°F 35.1°F 79% 30.25 in 10.0 miles West 3.5 mph - N/A   Overcast
7:53 AM 41.0°F 35.1°F 79% 30.26 in 10.0 miles WSW 4.6 mph - N/A   Overcast
8:35 AM 42.1°F 35.1°F 76% 30.26 in 10.0 miles West 4.6 mph - N/A   Overcast
8:53 AM 42.1°F 36.0°F 79% 30.27 in 10.0 miles Calm Calm - N/A   Overcast
9:53 AM 43.0°F 37.9°F 82% 30.29 in 10.0 miles Calm Calm - N/A   Overcast
10:40 AM 43.0°F 39.9°F 89% 30.28 in 9.0 miles Calm Calm - 0.00 in Rain Light Rain
10:53 AM 43.0°F 41.0°F 93% 30.29 in 6.0 miles Calm Calm - 0.00 in Rain Light Rain
11:22 AM 43.0°F 41.0°F 93% 30.28 in 6.0 miles ENE 3.5 mph - 0.00 in   Overcast
11:53 AM 43.0°F 41.0°F 93% 30.28 in 4.0 miles ENE 3.5 mph - 0.00 in   Overcast
12:53 PM 43.0°F 41.0°F 93% 30.27 in 10.0 miles East 3.5 mph - N/A   Overcast
1:53 PM 44.1°F 41.0°F 89% 30.27 in 10.0 miles Calm Calm - N/A   Overcast
2:36 PM 45.0°F 41.0°F 86% 30.27 in 10.0 miles Calm Calm - N/A   Overcast
2:53 PM 44.1°F 41.0°F 89% 30.28 in 10.0 miles Calm Calm - N/A   Overcast
3:03 PM 44.1°F 41.0°F 89% 30.28 in 10.0 miles Calm Calm - N/A   Overcast
3:53 PM 44.1°F 41.0°F 89% 30.29 in 10.0 miles ESE 3.5 mph - N/A   Overcast
4:07 PM 44.1°F 41.0°F 89% 30.28 in 10.0 miles ESE 3.5 mph - N/A   Overcast
4:24 PM 45.0°F 41.0°F 86% 30.29 in 10.0 miles ESE 3.5 mph - N/A   Overcast
4:53 PM 44.1°F 41.0°F 89% 30.30 in 10.0 miles East 3.5 mph - N/A   Overcast
5:16 PM 44.1°F 41.0°F 89% 30.29 in 10.0 miles ESE 4.6 mph - N/A   Overcast
5:53 PM 44.1°F 41.0°F 89% 30.30 in 10.0 miles Calm Calm - N/A   Overcast
6:53 PM 43.0°F 39.9°F 89% 30.30 in 10.0 miles East 5.8 mph - N/A   Overcast
7:42 PM 43.0°F 39.9°F 89% 30.30 in 10.0 miles ESE 5.8 mph - N/A   Overcast
7:53 PM 43.0°F 39.9°F 89% 30.30 in 10.0 miles East 3.5 mph - N/A   Overcast
8:00 PM 43.0°F 39.9°F 89% 30.30 in 10.0 miles East 3.5 mph - N/A   Overcast
8:53 PM 43.0°F 39.9°F 89% 30.32 in 8.0 miles South 5.8 mph - 0.00 in   Overcast
9:53 PM 43.0°F 39.0°F 86% 30.33 in 10.0 miles Calm Calm - N/A   Overcast
10:17 PM 42.1°F 39.9°F 92% 30.33 in 10.0 miles SE 3.5 mph - N/A   Overcast
10:53 PM 42.1°F 39.9°F 92% 30.35 in 10.0 miles Calm Calm - N/A   Overcast
11:53 PM 41.0°F 39.0°F 93% 30.35 in 10.0 miles Calm Calm - N/A   Overcast
Moon Phase
Feb. 09 Feb. 10 Feb. 17 Feb. 25 Mar. 04
Sunrise:07:29 AM (PST) Moon Rise:06:44 AM (PST)2/9
Sunset:05:27 PM (PST) Moon Set:05:19 PM (PST)2/9

Copyright © 2014 The Weather Underground, Inc.